Weather History for Wiscasset, ME

Change the Weather History Date:

Wednesday, April 23, 2014

  Actual Average Record
Temperature  
Mean Temperature 52 °F -  
Max Temperature 60 °F 53 °F 79 °F (2007)
Min Temperature 45 °F 30 °F 28 °F (2004)
Degree Days  
Heating Degree Days 12    
Growing Degree Days 2 (Base 50)    
Moisture  
Dew Point 43 °F    
Average Humidity 81    
Maximum Humidity 100    
Minimum Humidity 49    
Precipitation  
Precipitation 0.12 in - - ()
Sea Level Pressure  
Sea Level Pressure 29.44 in    
Wind  
Wind Speed 1 mph (NW)    
Max Wind Speed 9 mph    
Max Gust Speed 22 mph    
Visibility 6 miles    
Events Fog , Rain    
Averages and records for this station are not official NWS values.
T = Trace of Precipitation, MM = Missing Value Source: NWS Daily Summary

Daily Weather History Graph

Daily Weather History Graph

Search for Another Location

Airport:

Trip Planner

Search our weather history database for the weather conditions in past years. The results will help you decide how hot, cold, wet, or windy it might be!

Date:

Astronomy

Apr. 23, 2014 Rise Set
Actual Time 5:42 AM EDT 7:32 PM EDT
Civil Twilight 5:11 AM EDT 8:03 PM EDT
Nautical Twilight 4:34 AM EDT 8:41 PM EDT
Astronomical Twilight 3:53 AM EDT 9:21 PM EDT
Moon 2:24 AM EDT (4/23) 1:25 PM EDT (4/23)
Length of Visible Light 14h 51m
Length of Day
13h 49m
Waning Crescent, 35% of the Moon is Illuminated
Apr 23
Waning Crescent
Apr 29
New
May 6
First Quarter
May 14
Full
May 21
Last Quarter

Hourly Weather History & Observations

Time (EDT) Temp. Dew Point Humidity Pressure Visibility Wind Dir Wind Speed Gust Speed Precip Events Conditions
12:53 AM 46.9 °F 44.1 °F 90% 29.45 in 6.0 mi Calm Calm - 0.01 in Rain Light Rain
1:53 AM 46.9 °F 45.0 °F 93% 29.44 in 4.0 mi Calm Calm - 0.09 in Rain Light Rain
2:09 AM 46.9 °F 45.0 °F 93% 29.43 in 5.0 mi Calm Calm - 0.02 in Rain Light Rain
2:53 AM 46.9 °F 45.0 °F 93% 29.42 in 6.0 mi Calm Calm - 0.02 in   Overcast
3:02 AM 46.9 °F 45.0 °F 93% 29.42 in 8.0 mi Calm Calm - N/A   Overcast
3:35 AM 46.9 °F 45.0 °F 93% 29.42 in 7.0 mi Calm Calm - N/A   Overcast
3:53 AM 46.0 °F 45.0 °F 96% 29.42 in 4.0 mi Calm Calm - N/A   Overcast
4:29 AM 46.9 °F 45.0 °F 93% 29.43 in 6.0 mi Calm Calm - N/A   Overcast
4:43 AM 46.9 °F 45.0 °F 93% 29.43 in 6.0 mi Calm Calm - N/A   Overcast
4:53 AM 46.9 °F 45.0 °F 93% 29.43 in 6.0 mi Calm Calm - N/A   Overcast
5:08 AM 46.0 °F 45.0 °F 96% 29.43 in 6.0 mi Calm Calm - N/A   Overcast
5:15 AM 46.0 °F 44.1 °F 93% 29.43 in 6.0 mi Calm Calm - N/A   Mostly Cloudy
5:27 AM 46.0 °F 45.0 °F 96% 29.43 in 7.0 mi Calm Calm - N/A   Overcast
5:53 AM 46.0 °F 44.1 °F 93% 29.42 in 4.0 mi Calm Calm - N/A   Overcast
6:12 AM 46.0 °F 45.0 °F 96% 29.42 in 1.8 mi Calm Calm - N/A   Overcast
6:17 AM 46.0 °F 45.0 °F 96% 29.42 in 0.8 mi Calm Calm - N/A   Overcast
6:53 AM 45.0 °F 45.0 °F 100% 29.44 in 0.2 mi Calm Calm - N/A Fog Fog
7:53 AM 46.0 °F 45.0 °F 96% 29.44 in 0.5 mi Calm Calm - N/A Fog Fog
8:05 AM 46.9 °F 46.0 °F 97% 29.44 in 1.5 mi Calm Calm - N/A   Overcast
8:18 AM 46.9 °F 46.0 °F 97% 29.44 in 3.0 mi Calm Calm - N/A   Overcast
8:25 AM 46.9 °F 46.9 °F 100% 29.44 in 1.8 mi Calm Calm - N/A   Overcast
8:34 AM 48.0 °F 46.0 °F 93% 29.44 in 3.0 mi Calm Calm - N/A   Overcast
8:53 AM 50.0 °F 48.0 °F 93% 29.44 in 9.0 mi Calm Calm - N/A   Overcast
9:23 AM 53.1 °F 48.9 °F 86% 29.44 in 10.0 mi Calm Calm - N/A   Mostly Cloudy
9:33 AM 54.0 °F 48.9 °F 83% 29.44 in 10.0 mi Variable 3.5 mph - N/A   Scattered Clouds
9:53 AM 55.9 °F 48.0 °F 75% 29.44 in 10.0 mi Calm Calm - N/A   Partly Cloudy
10:53 AM 60.1 °F 46.0 °F 60% 29.43 in 10.0 mi North - - N/A   Overcast
11:46 AM 57.9 °F 42.1 °F 56% 29.43 in 2.0 mi WNW 9.2 mph - N/A   Haze
11:53 AM 57.9 °F 42.1 °F 56% 29.44 in 10.0 mi Variable 5.8 mph 17.3 mph N/A   Overcast
1:53 PM 57.0 °F 39.9 °F 53% 29.42 in 10.0 mi Variable 4.6 mph 17.3 mph N/A   Overcast
2:53 PM 57.9 °F 39.0 °F 49% 29.41 in 10.0 mi NW 9.2 mph 17.3 mph N/A   Scattered Clouds
4:53 PM 52.0 °F 36.0 °F 54% 29.43 in 10.0 mi NNW 8.1 mph 18.4 mph N/A   Overcast
5:53 PM 51.1 °F 35.1 °F 54% 29.44 in 10.0 mi North - - N/A   Overcast
6:53 PM 50.0 °F 34.0 °F 54% 29.46 in 10.0 mi North - - N/A   Overcast
7:53 PM 48.9 °F 33.1 °F 54% 29.48 in 10.0 mi Variable 6.9 mph - N/A   Overcast
8:53 PM 46.9 °F 34.0 °F 61% 29.50 in 10.0 mi Variable 5.8 mph - N/A   Overcast
9:53 PM 46.9 °F 32.0 °F 56% 29.50 in 10.0 mi NNW 9.2 mph 21.9 mph N/A   Overcast
10:53 PM 46.0 °F 33.1 °F 61% 29.50 in 10.0 mi Calm Calm - N/A   Overcast
11:53 PM 46.0 °F 33.1 °F 61% 29.50 in 10.0 mi North - - N/A   Overcast